Find Starlink 3788

NORAD ID: 52271 Int'l Des: 2022-041 Owner: SPXS Country: US Constellation: starlink operational
LEOCIRCULAR

当前视图

正在加载3D地球...

关于 Starlink 3788

正在加载描述...

即将过境

Passes for default location (London). Set your location on the main map for personalized predictions.

高度历史

Loading altitude history...

两行轨道根数

1 52271U 22041L 26159.43874852 -.00000300 00000-0 -73281-6 0 9992
2 52271 53.1660 61.6907 0001248 94.0398 266.0736 15.08836478228065
Epoch: Jun 8, 2026 • Age: 14 hours

当前状态

高度 546.9 km
速度 7.59 km/s
星下点 -23.38°S, 132.23°E
发射日期 Apr 21, 2022
运行时间 4.1 years
类型 internet

技术详情

分类 Payload
质量 297.00 kg
干质量 275.00 kg
总质量 297.00 kg
长度 0.20 m
直径 2.80 m
跨度 9.00 m
形状 Box + pan
制造商 SPXS
平台类型 Starlink
阶段状态 In Orbit
所有者/国家 SPXS/US

Most Searched